When you browse on this site, cookies collect data to enhance your experience and personalize the content and advertising you see.
Visit our Privacy Policy to learn more. By continuing to use the site, you agree to this use of cookies and data.
  • In Hungary
  • List of Countries
  • For 7 days
  • Water Temperature
  • Weather Map
  • News
  • Weather Widgets
  • user-avatar
    Login

    Hourly Weather Ludenscheid

    Today, 2 April, Thursday

    Time Temperature Precipitation Wind Pressure Humidity
    00:00 -1°C° 0 mm 0 mps 725 mmHg 86%
    01:00 -1°C° 0 mm 0 mps 725 mmHg 86%
    02:00 -1°C° 0 mm 0 mps 725 mmHg 87%
    03:00 -1°C° 0 mm 0 mps 725 mmHg 87%
    04:00 -2°C° 0 mm 0 mps 724 mmHg 87%
    05:00 -1°C° 0 mm 0 mps 724 mmHg 85%
    06:00 -1°C° 0 mm 0 mps 724 mmHg 83%
    07:00 0°C° 0 mm 0 mps 724 mmHg 81%
    08:00 +3°C° 0 mm 1 mps 724 mmHg 73%
    09:00 +3°C° 0 mm 2 mps 724 mmHg 65%
    10:00 +5°C° 0 mm 2 mps 724 mmHg 57%
    11:00 +5°C° 0 mm 3 mps 723 mmHg 55%
    12:00 +7°C° 0 mm 3 mps 723 mmHg 52%
    13:00 +8°C° 0 mm 3 mps 723 mmHg 49%
    14:00 +7°C° 0 mm 4 mps 722 mmHg 50%
    15:00 +7°C° 0 mm 4 mps 722 mmHg 51%
    16:00 +7°C° 0 mm 4 mps 721 mmHg 52%
    17:00 +6°C° 0 mm 4 mps 721 mmHg 58%
    18:00 +5°C° 0 mm 3 mps 721 mmHg 65%
    19:00 +3°C° 0 mm 3 mps 721 mmHg 71%
    20:00 +3°C° 0 mm 3 mps 721 mmHg 75%
    21:00 +3°C° 0 mm 3 mps 721 mmHg 79%
    22:00 +2°C° 0 mm 3 mps 721 mmHg 83%
    23:00 +2°C° 0 mm 3 mps 721 mmHg 85%

    Tomorrow, 3 April, Friday

    Time Temperature Precipitation Wind Pressure Humidity
    00:00 +2°C° 0 mm 3 mps 721 mmHg 88%
    01:00 +1°C° 0 mm 3 mps 721 mmHg 91%
    02:00 +2°C° 0.1 mm 3 mps 721 mmHg 91%
    03:00 +2°C° 0.1 mm 3 mps 721 mmHg 92%
    04:00 +3°C° 0.1 mm 3 mps 721 mmHg 92%
    05:00 +2°C° 0.1 mm 3 mps 722 mmHg 92%
    06:00 +3°C° 0.1 mm 2 mps 722 mmHg 92%
    07:00 +3°C° 0.1 mm 2 mps 723 mmHg 91%
    08:00 +3°C° 0.1 mm 2 mps 723 mmHg 84%
    09:00 +4°C° 0.1 mm 2 mps 724 mmHg 77%
    10:00 +5°C° 0.1 mm 2 mps 724 mmHg 69%
    11:00 +4°C° 0.1 mm 3 mps 724 mmHg 66%
    12:00 +5°C° 0.1 mm 3 mps 725 mmHg 62%
    13:00 +5°C° 0.1 mm 3 mps 725 mmHg 59%
    14:00 +7°C° 0 mm 3 mps 725 mmHg 58%
    15:00 +7°C° 0 mm 3 mps 725 mmHg 57%
    16:00 +7°C° 0 mm 3 mps 725 mmHg 56%
    17:00 +5°C° 0 mm 3 mps 725 mmHg 60%
    18:00 +4°C° 0 mm 2 mps 726 mmHg 64%
    19:00 +3°C° 0 mm 2 mps 726 mmHg 69%
    20:00 +4°C° 0 mm 1 mps 727 mmHg 70%
    21:00 +3°C° 0 mm 1 mps 727 mmHg 72%
    22:00 +2°C° 0 mm 1 mps 728 mmHg 74%
    23:00 +2°C° 0 mm 1 mps 728 mmHg 77%

    Day after tomorrow, 4 April, Saturday

    Time Temperature Precipitation Wind Pressure Humidity
    00:00 +1°C° 0 mm 0 mps 729 mmHg 80%
    01:00 0°C° 0 mm 0 mps 729 mmHg 82%
    02:00 0°C° 0 mm 0 mps 729 mmHg 84%
    03:00 -1°C° 0 mm 0 mps 729 mmHg 86%
    04:00 -1°C° 0 mm 0 mps 729 mmHg 88%
    05:00 0°C° 0 mm 0 mps 730 mmHg 86%
    06:00 0°C° 0 mm 0 mps 730 mmHg 83%
    07:00 +1°C° 0 mm 0 mps 731 mmHg 80%
    08:00 +3°C° 0 mm 0 mps 731 mmHg 70%
    09:00 +6°C° 0 mm 0 mps 732 mmHg 59%
    10:00 +9°C° 0 mm 1 mps 732 mmHg 48%
    11:00 +10°C° 0 mm 1 mps 732 mmHg 45%
    12:00 +12°C° 0 mm 1 mps 732 mmHg 41%
    13:00 +13°C° 0 mm 1 mps 732 mmHg 37%
    14:00 +13°C° 0 mm 1 mps 732 mmHg 38%
    15:00 +12°C° 0 mm 2 mps 732 mmHg 39%
    16:00 +12°C° 0 mm 2 mps 731 mmHg 40%
    17:00 +10°C° 0 mm 2 mps 731 mmHg 48%
    18:00 +8°C° 0 mm 2 mps 731 mmHg 57%
    19:00 +7°C° 0 mm 1 mps 731 mmHg 65%
    20:00 +6°C° 0 mm 2 mps 732 mmHg 68%
    21:00 +5°C° 0 mm 2 mps 732 mmHg 71%
    22:00 +4°C° 0 mm 2 mps 732 mmHg 74%
    23:00 +4°C° 0 mm 2 mps 732 mmHg 75%

    5 April, Sunday

    Time Temperature Precipitation Wind Pressure Humidity
    00:00 +3°C° 0 mm 2 mps 732 mmHg 75%
    01:00 +3°C° 0 mm 2 mps 732 mmHg 76%
    02:00 +2°C° 0 mm 3 mps 732 mmHg 75%
    03:00 +2°C° 0 mm 3 mps 732 mmHg 74%
    04:00 +2°C° 0 mm 3 mps 732 mmHg 74%
    05:00 +2°C° 0 mm 3 mps 732 mmHg 73%
    06:00 +3°C° 0 mm 4 mps 732 mmHg 72%
    07:00 +3°C° 0 mm 4 mps 732 mmHg 70%
    08:00 +5°C° 0 mm 4 mps 732 mmHg 62%
    09:00 +7°C° 0 mm 5 mps 732 mmHg 54%
    10:00 +9°C° 0 mm 5 mps 732 mmHg 46%
    11:00 +12°C° 0 mm 5 mps 731 mmHg 44%
    12:00 +13°C° 0 mm 5 mps 731 mmHg 41%
    13:00 +15°C° 0 mm 5 mps 731 mmHg 39%
    14:00 +15°C° 0 mm 5 mps 731 mmHg 41%
    15:00 +15°C° 0 mm 4 mps 730 mmHg 42%
    16:00 +15°C° 0 mm 4 mps 730 mmHg 43%
    17:00 +13°C° 0 mm 4 mps 730 mmHg 50%
    18:00 +12°C° 0 mm 4 mps 729 mmHg 57%
    19:00 +10°C° 0 mm 3 mps 729 mmHg 63%
    20:00 +9°C° 0 mm 3 mps 729 mmHg 66%
    21:00 +9°C° 0 mm 3 mps 729 mmHg 69%
    22:00 +8°C° 0 mm 3 mps 729 mmHg 71%
    23:00 +8°C° 0 mm 3 mps 729 mmHg 73%

    6 April, Monday

    Time Temperature Precipitation Wind Pressure Humidity
    00:00 +7°C° 0 mm 3 mps 729 mmHg 75%
    01:00 +7°C° 0 mm 3 mps 729 mmHg 77%
    02:00 +7°C° 0 mm 3 mps 729 mmHg 78%
    03:00 +5°C° 0 mm 3 mps 729 mmHg 79%
    04:00 +6°C° 0 mm 2 mps 729 mmHg 80%
    05:00 +7°C° 0 mm 3 mps 729 mmHg 79%
    06:00 +7°C° 0 mm 3 mps 730 mmHg 77%
    07:00 +7°C° 0 mm 3 mps 730 mmHg 75%
    08:00 +9°C° 0 mm 3 mps 730 mmHg 65%
    09:00 +12°C° 0 mm 4 mps 731 mmHg 54%
    10:00 +14°C° 0 mm 5 mps 731 mmHg 44%
    11:00 +15°C° 0 mm 5 mps 731 mmHg 41%
    12:00 +16°C° 0 mm 5 mps 731 mmHg 39%
    13:00 +17°C° 0 mm 5 mps 731 mmHg 36%
    14:00 +17°C° 0 mm 5 mps 732 mmHg 38%
    15:00 +18°C° 0 mm 4 mps 732 mmHg 39%
    16:00 +18°C° 0 mm 4 mps 732 mmHg 40%
    17:00 +17°C° 0 mm 3 mps 732 mmHg 49%
    18:00 +15°C° 0 mm 2 mps 732 mmHg 57%
    19:00 +13°C° 0 mm 2 mps 732 mmHg 65%
    20:00 +13°C° 0 mm 1 mps 733 mmHg 69%
    21:00 +12°C° 0 mm 1 mps 734 mmHg 72%
    22:00 +12°C° 0 mm 1 mps 734 mmHg 75%
    23:00 +12°C° 0 mm 1 mps 735 mmHg 77%

    7 April, Tuesday

    Time Temperature Precipitation Wind Pressure Humidity
    00:00 +11°C° 0 mm 1 mps 735 mmHg 80%
    01:00 +10°C° 0 mm 0 mps 735 mmHg 82%
    02:00 +10°C° 0 mm 0 mps 736 mmHg 85%
    03:00 +9°C° 0 mm 0 mps 736 mmHg 87%
    04:00 +10°C° 0 mm 1 mps 736 mmHg 90%
    05:00 +10°C° 0 mm 1 mps 736 mmHg 89%
    06:00 +10°C° 0 mm 1 mps 736 mmHg 88%
    07:00 +11°C° 0 mm 1 mps 737 mmHg 86%
    08:00 +12°C° 0 mm 1 mps 737 mmHg 79%
    09:00 +14°C° 0 mm 1 mps 737 mmHg 72%
    10:00 +16°C° 0 mm 1 mps 737 mmHg 65%
    11:00 +18°C° 0 mm 1 mps 737 mmHg 58%
    12:00 +18°C° 0 mm 2 mps 737 mmHg 52%
    13:00 +19°C° 0 mm 2 mps 737 mmHg 46%
    14:00 +19°C° 0 mm 2 mps 737 mmHg 45%
    15:00 +20°C° 0 mm 2 mps 736 mmHg 45%
    16:00 +20°C° 0 mm 2 mps 736 mmHg 45%
    17:00 +18°C° 0 mm 2 mps 736 mmHg 52%
    18:00 +16°C° 0 mm 2 mps 735 mmHg 59%
    19:00 +15°C° 0 mm 2 mps 735 mmHg 65%
    20:00 +14°C° 0 mm 2 mps 735 mmHg 69%
    21:00 +13°C° 0 mm 2 mps 735 mmHg 73%
    22:00 +11°C° 0 mm 3 mps 735 mmHg 77%
    23:00 +12°C° 0 mm 2 mps 735 mmHg 78%
    Show more